User: anonymous   Login
Location: *
(48.8780°N, 19.2358°E)
Time: 04:12:48
(UTC+00:00)
Language:

H-2A R/B - Orbit

View from above orbital plane
View from above orbital plane
View from above satellite
View from above satellite

Ground track
Ground track

The orbit data is extracted from the following two-line orbital elements,

1 27601U 02056E   19340.40156999  .00000035  00000-0  27161-4 0  9998
2 27601  98.2539  20.8860 0073030 134.8602 236.3469 14.31921336886913
Epoch (UTC): 06 December 2019 09:38:15
Eccentricity: 0.0073030
inclination: 98.2539°
perigee height: 733 km
apogee height: 837 km
right ascension of ascending node: 20.8860°
argument of perigee: 134.8602°
revolutions per day: 14.31921336
mean anomaly at epoch: 236.3469°
orbit number at epoch: 88691

The dashed part of the orbit path shows where the satellite is in the earth's shadow,  

DLR